Location: Unspecified
(36.5600°N, 136.6600°E)
Time: 14:37:54
(UTC+09:00)

ISS - Pass Details

Date: 26 June 2024
Orbit: 410 x 424 km, 51.6° (Epoch: 17 July)

Event Time Altitude Azimuth Distance (km) Brightness Sun altitude
Exits shadow 03:46:40 - 282° (WNW) 2,026 -0.7 -9.1°
Reaches altitude 10° 03:48:37 10° 303° (WNW) 1,487 -1.2 -8.8°
Maximum altitude 03:50:25 14° 336° (NNW) 1,282 -1.1 -8.5°
Drops below altitude 10° 03:52:15 10° 9° (N) 1,495 -0.2 -8.3°
Sets 03:55:10 0° 37° (NE) 2,366 1.8 -7.8°
